,,PA_Meas_PMT16A,,PR_Meas_QMR101_102,,RH_Meas_QMH101,,SR_Meas_QMS101,,TA_Meas_QMH101,,GenWind,,GenWind,
time,status,PA,status,PR,status,RH,status,SR,status,TA,status,DirAvg,status,SpdAvg,
2010-01-07, 00:00:04,VALID,918.368,VALID,0,VALID,95.0183,VALID,0,VALID,20.3823,VALID,348,VALID,0.228125,
2010-01-07, 00:01:04,VALID,918.364,VALID,0,VALID,95.0869,VALID,0,VALID,20.3612,VALID,348,VALID,0.23125,
2010-01-07, 00:02:04,VALID,918.412,VALID,0,VALID,95.186,VALID,0,VALID,20.3823,VALID,348,VALID,0.0234375,
2010-01-07, 00:03:04,VALID,918.405,VALID,0,VALID,95.0716,VALID,0,VALID,20.3417,VALID,348,VALID,0.233984,
2010-01-07, 00:04:04,VALID,918.388,VALID,0,VALID,95.1783,VALID,0,VALID,20.3417,VALID,348,VALID,0.244531,
2010-01-07, 00:05:04,VALID,918.37,VALID,0,VALID,95.1555,VALID,0,VALID,20.3222,VALID,348,VALID,0.352734,
2010-01-07, 00:06:04,VALID,918.375,VALID,0,VALID,95.2165,VALID,0,VALID,20.3043,VALID,348,VALID,0.333594,
2010-01-07, 00:07:04,VALID,918.388,VALID,0,VALID,95.4909,VALID,0,VALID,20.3238,VALID,348,VALID,0.219922,
2010-01-07, 00:08:04,VALID,918.392,VALID,0,VALID,95.5367,VALID,0,VALID,20.3222,VALID,348,VALID,0.138672,
2010-01-07, 00:09:04,VALID,918.374,VALID,0,VALID,95.5367,VALID,0,VALID,20.3433,VALID,348,VALID,0.415625,
2010-01-07, 00:10:04,VALID,918.387,VALID,0,VALID,95.4375,VALID,0.107441,VALID,20.3238,VALID,348,VALID,0.257422,
2010-01-07, 00:11:04,VALID,918.393,VALID,0,VALID,95.4299,VALID,0,VALID,20.3027,VALID,348,VALID,0.0730469,
2010-01-07, 00:12:04,VALID,918.419,VALID,0,VALID,95.4757,VALID,0,VALID,20.3027,VALID,348,VALID,0,
2010-01-07, 00:13:04,VALID,918.408,VALID,0,VALID,95.5138,VALID,0,VALID,20.2832,VALID,348,VALID,0,
2010-01-07, 00:14:04,VALID,918.425,VALID,0,VALID,95.4375,VALID,0,VALID,20.3027,VALID,348,VALID,0,
2010-01-07, 00:15:04,VALID,918.412,VALID,0,VALID,95.5367,VALID,0,VALID,20.3433,VALID,348,VALID,0.295703,
2010-01-07, 00:16:04,VALID,918.436,VALID,0,VALID,95.4375,VALID,0.107441,VALID,20.3238,VALID,348,VALID,0.340625,
2010-01-07, 00:17:04,VALID,918.443,VALID,0,VALID,95.3156,VALID,0.107441,VALID,20.2832,VALID,348,VALID,0.583984,
2010-01-07, 00:18:04,VALID,918.445,VALID,0,VALID,95.3537,VALID,0,VALID,20.2848,VALID,348,VALID,0.476172,
2010-01-07, 00:19:04,VALID,918.47,VALID,0,VALID,95.4757,VALID,0,VALID,20.2458,VALID,348,VALID,0.634375,
2010-01-07, 00:20:04,VALID,918.452,VALID,0,VALID,95.6662,VALID,0.107441,VALID,20.2458,VALID,348,VALID,0.579297,
2010-01-07, 00:21:04,VALID,918.412,VALID,0,VALID,95.7196,VALID,0,VALID,20.2458,VALID,348,VALID,0.444922,
2010-01-07, 00:22:04,VALID,918.42,VALID,0,VALID,95.651,VALID,0,VALID,20.2052,VALID,348,VALID,0.782422,
2010-01-07, 00:23:04,VALID,918.393,VALID,0,VALID,95.6357,VALID,0,VALID,20.1873,VALID,348,VALID,0.694141,
2010-01-07, 00:24:04,VALID,918.386,VALID,0,VALID,95.7272,VALID,0.107441,VALID,20.1678,VALID,348,VALID,0.808594,
2010-01-07, 00:25:04,VALID,918.364,VALID,0,VALID,95.8645,VALID,0,VALID,20.1678,VALID,348,VALID,0.621484,
2010-01-07, 00:26:04,VALID,918.34,VALID,0,VALID,95.9559,VALID,0.107441,VALID,20.1467,VALID,348,VALID,0.542969,
2010-01-07, 00:27:04,VALID,918.329,VALID,0,VALID,95.9788,VALID,0,VALID,20.1678,VALID,348,VALID,0.685547,
2010-01-07, 00:28:04,VALID,918.341,VALID,0,VALID,96.0093,VALID,0,VALID,20.1483,VALID,348,VALID,0.728516,
2010-01-07, 00:29:04,VALID,918.332,VALID,0,VALID,96.0474,VALID,0,VALID,20.1483,VALID,348,VALID,0.408594,
2010-01-07, 00:30:04,VALID,918.342,VALID,0,VALID,96.1541,VALID,0.107441,VALID,20.1467,VALID,348,VALID,0.0832031,
2010-01-07, 00:31:04,VALID,918.346,VALID,0,VALID,96.2304,VALID,0,VALID,20.1678,VALID,348,VALID,0.340234,
2010-01-07, 00:32:04,VALID,918.321,VALID,0,VALID,96.3829,VALID,0,VALID,20.2263,VALID,348,VALID,0.474219,
2010-01-07, 00:33:04,VALID,918.361,VALID,0,VALID,96.3447,VALID,0,VALID,20.2263,VALID,348,VALID,0.136328,
2010-01-07, 00:34:04,VALID,918.378,VALID,0,VALID,96.2533,VALID,0,VALID,20.2068,VALID,348,VALID,0.0503906,
2010-01-07, 00:35:04,VALID,918.358,VALID,0,VALID,96.055,VALID,0.107441,VALID,20.1483,VALID,348,VALID,0.365625,
2010-01-07, 00:36:04,VALID,918.365,VALID,0,VALID,96.0474,VALID,0.107441,VALID,20.1093,VALID,348,VALID,0.235547,
2010-01-07, 00:37:04,VALID,918.339,VALID,0,VALID,96.1465,VALID,0,VALID,20.0688,VALID,348,VALID,0.192188,
2010-01-07, 00:38:04,VALID,918.322,VALID,0,VALID,96.238,VALID,0,VALID,20.0703,VALID,348,VALID,0,
2010-01-07, 00:39:04,VALID,918.36,VALID,0,VALID,96.2685,VALID,0,VALID,20.0298,VALID,348,VALID,0,
2010-01-07, 00:40:04,VALID,918.349,VALID,0,VALID,96.3219,VALID,0,VALID,20.0493,VALID,348,VALID,0,
2010-01-07, 00:41:04,VALID,918.376,VALID,0,VALID,96.36,VALID,0,VALID,20.0703,VALID,348,VALID,0,
2010-01-07, 00:42:04,VALID,918.352,VALID,0,VALID,96.36,VALID,0,VALID,20.0508,VALID,348,VALID,0.6375,
2010-01-07, 00:43:04,VALID,918.352,VALID,0,VALID,96.2304,VALID,0,VALID,20.0313,VALID,348,VALID,0.885547,
2010-01-07, 00:44:04,VALID,918.332,VALID,0,VALID,96.299,VALID,0,VALID,20.0118,VALID,348,VALID,0.828125,
2010-01-07, 00:45:04,VALID,918.346,VALID,0,VALID,96.177,VALID,0,VALID,19.9533,VALID,348,VALID,0.657031,
2010-01-07, 00:46:04,VALID,918.325,VALID,0,VALID,96.2837,VALID,0,VALID,19.9143,VALID,348,VALID,0.427344,
2010-01-07, 00:47:04,VALID,918.323,VALID,0,VALID,96.3371,VALID,0,VALID,19.8933,VALID,348,VALID,0.505469,
2010-01-07, 00:48:04,VALID,918.302,VALID,0,VALID,96.3981,VALID,0,VALID,19.9143,VALID,348,VALID,0.420703,
2010-01-07, 00:49:04,VALID,918.303,VALID,0,VALID,96.3371,VALID,0.107441,VALID,19.8753,VALID,348,VALID,0.759766,
2010-01-07, 00:50:04,VALID,918.301,VALID,0,VALID,96.3981,VALID,0.107441,VALID,19.8363,VALID,348,VALID,0.920313,
2010-01-07, 00:51:04,VALID,918.271,VALID,0,VALID,96.4819,VALID,0,VALID,19.8363,VALID,348,VALID,0.645703,
2010-01-07, 00:52:04,VALID,918.283,VALID,0,VALID,96.5277,VALID,0,VALID,19.8363,VALID,348,VALID,0.465234,
2010-01-07, 00:53:04,VALID,918.295,VALID,0,VALID,96.5734,VALID,0.107441,VALID,19.8153,VALID,348,VALID,0.362109,
2010-01-07, 00:54:04,VALID,918.268,VALID,0,VALID,96.6497,VALID,0,VALID,19.8363,VALID,348,VALID,0.528516,
2010-01-07, 00:55:04,VALID,918.245,VALID,0,VALID,96.6954,VALID,0,VALID,19.8558,VALID,348,VALID,1.35547,
2010-01-07, 00:56:04,VALID,918.272,VALID,0,VALID,96.6573,VALID,0,VALID,19.8348,VALID,348,VALID,1.76289,
2010-01-07, 00:57:04,VALID,918.331,VALID,0,VALID,96.7183,VALID,0.107441,VALID,19.8363,VALID,348,VALID,0.773828,
2010-01-07, 00:58:04,VALID,918.327,VALID,0,VALID,96.7183,VALID,0,VALID,19.8363,VALID,348,VALID,0.717188,
2010-01-07, 00:59:04,VALID,918.32,VALID,0,VALID,96.764,VALID,0.107441,VALID,19.8153,VALID,348,VALID,0.613281,
2010-01-07, 01:00:04,VALID,918.343,VALID,0,VALID,96.8174,VALID,0,VALID,19.8363,VALID,348,VALID,1.12969,
2010-01-07, 01:01:04,VALID,918.331,VALID,0,VALID,96.8098,VALID,0,VALID,19.8153,VALID,348,VALID,0.692578,
2010-01-07, 01:02:04,VALID,918.347,VALID,0,VALID,96.8936,VALID,0,VALID,19.8753,VALID,348,VALID,1.25586,
2010-01-07, 01:03:04,VALID,918.371,VALID,0,VALID,96.9775,VALID,0,VALID,19.8933,VALID,348,VALID,0.493359,
2010-01-07, 01:04:04,VALID,918.369,VALID,0,VALID,96.8707,VALID,0,VALID,19.8738,VALID,348,VALID,0.580859,
2010-01-07, 01:05:04,VALID,918.366,VALID,0,VALID,96.8174,VALID,0,VALID,19.8753,VALID,348,VALID,0.500391,
2010-01-07, 01:06:04,VALID,918.348,VALID,0,VALID,96.8479,VALID,0,VALID,19.8558,VALID,348,VALID,0.533984,
2010-01-07, 01:07:04,VALID,918.357,VALID,0,VALID,96.8326,VALID,0,VALID,19.8558,VALID,348,VALID,0.449219,
2010-01-07, 01:08:04,VALID,918.378,VALID,0,VALID,96.8631,VALID,0,VALID,19.8558,VALID,348,VALID,0.269141,
2010-01-07, 01:09:04,VALID,918.349,VALID,0,VALID,96.825,VALID,0,VALID,19.8363,VALID,348,VALID,0.255469,
2010-01-07, 01:10:04,VALID,918.343,VALID,0,VALID,96.886,VALID,0,VALID,19.8363,VALID,348,VALID,0,
2010-01-07, 01:11:04,VALID,918.331,VALID,0,VALID,96.9089,VALID,0.107441,VALID,19.8558,VALID,348,VALID,0,
2010-01-07, 01:12:04,VALID,918.361,VALID,0,VALID,96.825,VALID,0,VALID,19.8363,VALID,348,VALID,0.344141,
2010-01-07, 01:13:04,VALID,918.333,VALID,0,VALID,96.8326,VALID,0,VALID,19.8168,VALID,348,VALID,0.0808594,
2010-01-07, 01:14:04,VALID,918.357,VALID,0,VALID,96.8326,VALID,0,VALID,19.7973,VALID,348,VALID,0,
2010-01-07, 01:15:04,VALID,918.348,VALID,0,VALID,96.9241,VALID,0,VALID,19.8168,VALID,348,VALID,0.0246094,
2010-01-07, 01:16:04,VALID,918.35,VALID,0,VALID,96.9241,VALID,0,VALID,19.8168,VALID,348,VALID,0.416797,
2010-01-07, 01:17:04,VALID,918.33,VALID,0,VALID,96.8631,VALID,0,VALID,19.8363,VALID,348,VALID,0.028125,
2010-01-07, 01:18:04,VALID,918.325,VALID,0,VALID,96.8098,VALID,0,VALID,19.7778,VALID,348,VALID,0.623047,
2010-01-07, 01:19:04,VALID,918.348,VALID,0,VALID,96.9317,VALID,0,VALID,19.7973,VALID,348,VALID,0.633203,
2010-01-07, 01:20:04,VALID,918.298,VALID,0,VALID,96.764,VALID,0,VALID,19.7583,VALID,348,VALID,1.00977,
2010-01-07, 01:21:04,VALID,918.286,VALID,0,VALID,96.8021,VALID,0,VALID,19.7793,VALID,348,VALID,0.373437,
2010-01-07, 01:22:04,VALID,918.288,VALID,0,VALID,96.7564,VALID,0,VALID,19.7388,VALID,348,VALID,0.336328,
2010-01-07, 01:23:04,VALID,918.283,VALID,0,VALID,96.6802,VALID,0,VALID,19.7193,VALID,348,VALID,0.628906,
2010-01-07, 01:24:04,VALID,918.279,VALID,0,VALID,96.6878,VALID,0,VALID,19.6803,VALID,348,VALID,0.517578,
2010-01-07, 01:25:04,VALID,918.269,VALID,0,VALID,96.5734,VALID,0,VALID,19.6818,VALID,348,VALID,0.865234,
2010-01-07, 01:26:04,VALID,918.255,VALID,0,VALID,96.6344,VALID,0,VALID,19.7013,VALID,348,VALID,0.422656,
2010-01-07, 01:27:04,VALID,918.282,VALID,0,VALID,96.6115,VALID,0,VALID,19.6803,VALID,348,VALID,0.419141,
2010-01-07, 01:28:04,VALID,918.244,VALID,0,VALID,96.5963,VALID,0,VALID,19.6803,VALID,348,VALID,0.122656,
2010-01-07, 01:29:04,VALID,918.241,VALID,0,VALID,96.5658,VALID,0,VALID,19.6803,VALID,348,VALID,0,
2010-01-07, 01:30:04,VALID,918.251,VALID,0,VALID,96.5124,VALID,0,VALID,19.6608,VALID,348,VALID,0.392578,
2010-01-07, 01:31:04,VALID,918.239,VALID,0,VALID,96.3981,VALID,0,VALID,19.6413,VALID,348,VALID,0.410156,
2010-01-07, 01:32:04,VALID,918.215,VALID,0,VALID,96.3905,VALID,0,VALID,19.6413,VALID,348,VALID,0.286719,
2010-01-07, 01:33:04,VALID,918.188,VALID,0,VALID,96.3219,VALID,0,VALID,19.6218,VALID,348,VALID,0.623438,
2010-01-07, 01:34:04,VALID,918.196,VALID,0,VALID,96.238,VALID,0,VALID,19.6218,VALID,348,VALID,0.324219,
2010-01-07, 01:35:04,VALID,918.166,VALID,0,VALID,96.2304,VALID,0,VALID,19.6428,VALID,348,VALID,0.549219,
2010-01-07, 01:36:04,VALID,918.151,VALID,0,VALID,96.1618,VALID,0,VALID,19.6038,VALID,348,VALID,0.525781,
2010-01-07, 01:37:04,VALID,918.156,VALID,0,VALID,96.1465,VALID,0,VALID,19.5843,VALID,348,VALID,0.567187,
2010-01-07, 01:38:04,VALID,918.112,VALID,0,VALID,96.1465,VALID,0,VALID,19.5243,VALID,348,VALID,0.549609,
2010-01-07, 01:39:04,VALID,918.085,VALID,0,VALID,96.177,VALID,0,VALID,19.5648,VALID,348,VALID,0.676562,
2010-01-07, 01:40:04,VALID,918.041,VALID,0,VALID,96.2456,VALID,0,VALID,19.5048,VALID,348,VALID,0.55,
2010-01-07, 01:41:04,VALID,918.032,VALID,0,VALID,96.3295,VALID,0,VALID,19.5243,VALID,348,VALID,0.424609,
2010-01-07, 01:42:04,VALID,918.039,VALID,0,VALID,96.3524,VALID,0,VALID,19.5048,VALID,348,VALID,0,
2010-01-07, 01:43:04,VALID,917.992,VALID,0,VALID,96.3905,VALID,0,VALID,19.5243,VALID,348,VALID,0,
2010-01-07, 01:44:04,VALID,917.981,VALID,0,VALID,96.4362,VALID,0,VALID,19.5648,VALID,348,VALID,0,
2010-01-07, 01:45:04,VALID,917.985,VALID,0,VALID,96.4057,VALID,0,VALID,19.5258,VALID,348,VALID,0.258594,
2010-01-07, 01:46:04,VALID,917.961,VALID,0,VALID,96.3981,VALID,0,VALID,19.5048,VALID,348,VALID,0.349219,
2010-01-07, 01:47:04,VALID,917.935,VALID,0,VALID,96.3676,VALID,0,VALID,19.5453,VALID,348,VALID,0.3875,
2010-01-07, 01:48:04,VALID,917.944,VALID,0,VALID,96.421,VALID,0,VALID,19.5243,VALID,348,VALID,0.387109,
2010-01-07, 01:49:04,VALID,917.931,VALID,0,VALID,96.36,VALID,0,VALID,19.5048,VALID,348,VALID,0.322656,
2010-01-07, 01:50:04,VALID,917.935,VALID,0,VALID,96.3829,VALID,0,VALID,19.5048,VALID,348,VALID,0.297266,
2010-01-07, 01:51:04,VALID,917.878,VALID,0.2,VALID,96.3981,VALID,0,VALID,19.5258,VALID,348,VALID,0.0640625,
2010-01-07, 01:52:04,VALID,917.876,VALID,0,VALID,96.3905,VALID,0,VALID,19.5048,VALID,348,VALID,0,
2010-01-07, 01:53:04,VALID,917.837,VALID,0,VALID,96.4286,VALID,0,VALID,19.5453,VALID,348,VALID,0,
2010-01-07, 01:54:04,VALID,917.837,VALID,0,VALID,96.4896,VALID,0,VALID,19.5243,VALID,348,VALID,0,
2010-01-07, 01:55:04,VALID,917.78,VALID,0,VALID,96.4896,VALID,0,VALID,19.5453,VALID,348,VALID,0.192969,
2010-01-07, 01:56:04,VALID,917.752,VALID,0,VALID,96.5429,VALID,0,VALID,19.5633,VALID,348,VALID,0,
2010-01-07, 01:57:04,VALID,917.745,VALID,0,VALID,96.5506,VALID,0,VALID,19.5828,VALID,348,VALID,0,
2010-01-07, 01:58:04,VALID,917.718,VALID,0,VALID,96.5963,VALID,0,VALID,19.5828,VALID,348,VALID,0,
2010-01-07, 01:59:04,VALID,917.708,VALID,0,VALID,96.5963,VALID,0,VALID,19.6233,VALID,348,VALID,0,
2010-01-07, 02:00:04,VALID,917.738,VALID,0,VALID,96.5277,VALID,0,VALID,19.6038,VALID,348,VALID,0,
2010-01-07, 02:01:04,VALID,917.702,VALID,0,VALID,96.4819,VALID,0.107441,VALID,19.5438,VALID,348,VALID,0,
2010-01-07, 02:02:04,VALID,917.656,VALID,0,VALID,96.3905,VALID,0,VALID,19.5843,VALID,348,VALID,0.224609,
2010-01-07, 02:03:04,VALID,917.63,VALID,0,VALID,96.36,VALID,0,VALID,19.5438,VALID,348,VALID,0.494531,
2010-01-07, 02:04:04,VALID,917.651,VALID,0,VALID,96.2837,VALID,0,VALID,19.5243,VALID,348,VALID,0.521484,
2010-01-07, 02:05:04,VALID,917.591,VALID,0,VALID,96.2228,VALID,0,VALID,19.5048,VALID,348,VALID,0.461719,
2010-01-07, 02:06:04,VALID,917.563,VALID,0,VALID,96.1389,VALID,0,VALID,19.4868,VALID,348,VALID,0.291797,
2010-01-07, 02:07:04,VALID,917.558,VALID,0,VALID,96.1694,VALID,0,VALID,19.4673,VALID,348,VALID,0.35,
2010-01-07, 02:08:04,VALID,917.534,VALID,0,VALID,96.2761,VALID,0,VALID,19.4463,VALID,348,VALID,0.367188,
2010-01-07, 02:09:04,VALID,917.549,VALID,0,VALID,96.36,VALID,0,VALID,19.4268,VALID,348,VALID,0.699609,
2010-01-07, 02:10:04,VALID,917.511,VALID,0,VALID,96.4362,VALID,0,VALID,19.4463,VALID,348,VALID,0.927344,
2010-01-07, 02:11:04,VALID,917.497,VALID,0,VALID,96.5124,VALID,0,VALID,19.4463,VALID,348,VALID,0.740234,
2010-01-07, 02:12:04,VALID,917.481,VALID,0,VALID,96.5506,VALID,0,VALID,19.4463,VALID,348,VALID,0.835938,
2010-01-07, 02:13:04,VALID,917.452,VALID,0,VALID,96.5887,VALID,0,VALID,19.4463,VALID,348,VALID,0.877344,
2010-01-07, 02:14:04,VALID,917.428,VALID,0,VALID,96.642,VALID,0,VALID,19.4463,VALID,348,VALID,0.703516,
2010-01-07, 02:15:04,VALID,917.398,VALID,0,VALID,96.6954,VALID,0,VALID,19.4463,VALID,348,VALID,0.536719,
2010-01-07, 02:16:04,VALID,917.347,VALID,0,VALID,96.703,VALID,0,VALID,19.4463,VALID,348,VALID,0.254297,
2010-01-07, 02:17:04,VALID,917.285,VALID,0,VALID,96.7488,VALID,0,VALID,19.4268,VALID,348,VALID,0.139453,
2010-01-07, 02:18:04,VALID,917.272,VALID,0,VALID,96.764,VALID,0,VALID,19.4074,VALID,348,VALID,0,
2010-01-07, 02:19:04,VALID,917.299,VALID,0,VALID,96.7716,VALID,0,VALID,19.4074,VALID,348,VALID,0.359375,
2010-01-07, 02:20:04,VALID,917.275,VALID,0,VALID,96.8326,VALID,0,VALID,19.4268,VALID,348,VALID,0.895703,
2010-01-07, 02:21:04,VALID,917.242,VALID,0,VALID,96.886,VALID,0.107441,VALID,19.4463,VALID,348,VALID,0.664063,
2010-01-07, 02:22:04,VALID,917.291,VALID,0,VALID,96.8936,VALID,0,VALID,19.4658,VALID,348,VALID,0.432422,
2010-01-07, 02:23:04,VALID,917.237,VALID,0,VALID,96.9089,VALID,0,VALID,19.4463,VALID,348,VALID,0.863672,
2010-01-07, 02:24:04,VALID,917.214,VALID,0,VALID,96.9317,VALID,0,VALID,19.4658,VALID,348,VALID,0.446484,
2010-01-07, 02:25:04,VALID,917.238,VALID,0,VALID,96.9317,VALID,0,VALID,19.4658,VALID,348,VALID,0.124609,
2010-01-07, 02:26:04,VALID,917.233,VALID,0,VALID,96.9622,VALID,0,VALID,19.4658,VALID,348,VALID,0.323828,
2010-01-07, 02:27:04,VALID,917.219,VALID,0,VALID,96.9927,VALID,0,VALID,19.5063,VALID,348,VALID,0.437109,
2010-01-07, 02:28:04,VALID,917.195,VALID,0,VALID,96.8936,VALID,0,VALID,19.4658,VALID,348,VALID,0.417969,
2010-01-07, 02:29:04,VALID,917.128,VALID,0,VALID,96.8174,VALID,0,VALID,19.4268,VALID,348,VALID,0.294531,
2010-01-07, 02:30:04,VALID,917.139,VALID,0,VALID,96.8326,VALID,0,VALID,19.4478,VALID,348,VALID,0.166797,
2010-01-07, 02:31:04,VALID,917.133,VALID,0,VALID,96.8784,VALID,0,VALID,19.4463,VALID,348,VALID,0,
2010-01-07, 02:32:04,VALID,917.095,VALID,0,VALID,96.8555,VALID,0,VALID,19.4268,VALID,348,VALID,0,
2010-01-07, 02:33:04,VALID,917.103,VALID,0,VALID,96.8479,VALID,0,VALID,19.4268,VALID,348,VALID,0.258203,
2010-01-07, 02:34:04,VALID,917.11,VALID,0,VALID,96.8326,VALID,0,VALID,19.4268,VALID,348,VALID,0.397266,
2010-01-07, 02:35:04,VALID,917.119,VALID,0,VALID,96.8098,VALID,0,VALID,19.4268,VALID,348,VALID,0.296094,
2010-01-07, 02:36:04,VALID,917.141,VALID,0,VALID,96.8479,VALID,0,VALID,19.4268,VALID,348,VALID,0.286719,
2010-01-07, 02:37:04,VALID,917.095,VALID,0,VALID,96.8631,VALID,0,VALID,19.4268,VALID,348,VALID,0.0734375,
2010-01-07, 02:38:04,VALID,917.066,VALID,0,VALID,96.886,VALID,0,VALID,19.4463,VALID,348,VALID,0,
2010-01-07, 02:39:04,VALID,917.079,VALID,0,VALID,96.9165,VALID,0,VALID,19.4853,VALID,348,VALID,0,
2010-01-07, 02:40:04,VALID,917.039,VALID,0,VALID,96.9317,VALID,0,VALID,19.5048,VALID,348,VALID,0.342578,
2010-01-07, 02:41:04,VALID,917.014,VALID,0,VALID,96.8555,VALID,0,VALID,19.5453,VALID,348,VALID,0.439453,
2010-01-07, 02:42:04,VALID,917.078,VALID,0,VALID,96.8021,VALID,0,VALID,19.5243,VALID,348,VALID,0.545703,
2010-01-07, 02:43:05,VALID,917.044,VALID,0,VALID,96.7716,VALID,0,VALID,19.5648,VALID,348,VALID,0.286328,
2010-01-07, 02:44:04,VALID,917.063,VALID,0,VALID,96.764,VALID,0,VALID,19.6038,VALID,348,VALID,0.106641,
2010-01-07, 02:45:05,VALID,917.071,VALID,0,VALID,96.7411,VALID,0,VALID,19.5828,VALID,348,VALID,0.00078125,
2010-01-07, 02:46:05,VALID,917.064,VALID,0,VALID,96.7183,VALID,0,VALID,19.6023,VALID,348,VALID,0.412109,
2010-01-07, 02:47:05,VALID,917.087,VALID,0,VALID,96.6192,VALID,0,VALID,19.6233,VALID,348,VALID,0.275781,
2010-01-07, 02:48:05,VALID,917.084,VALID,0,VALID,96.5582,VALID,0,VALID,19.6023,VALID,348,VALID,0.240625,
2010-01-07, 02:49:05,VALID,917.122,VALID,0,VALID,96.5201,VALID,0,VALID,19.6023,VALID,348,VALID,0.252344,
2010-01-07, 02:50:05,VALID,917.136,VALID,0,VALID,96.4819,VALID,0,VALID,19.6023,VALID,348,VALID,0.432813,
2010-01-07, 02:51:05,VALID,917.129,VALID,0,VALID,96.4286,VALID,0,VALID,19.6023,VALID,348,VALID,0.15,
2010-01-07, 02:52:05,VALID,917.12,VALID,0,VALID,96.4591,VALID,0,VALID,19.6023,VALID,348,VALID,0,
2010-01-07, 02:53:05,VALID,917.135,VALID,0,VALID,96.4743,VALID,0,VALID,19.6023,VALID,348,VALID,0,
2010-01-07, 02:54:05,VALID,917.128,VALID,0,VALID,96.5277,VALID,0,VALID,19.5828,VALID,348,VALID,0.0113281,
2010-01-07, 02:55:05,VALID,917.147,VALID,0,VALID,96.4133,VALID,0,VALID,19.5633,VALID,348,VALID,0.500781,
2010-01-07, 02:56:05,VALID,917.111,VALID,0,VALID,96.36,VALID,0,VALID,19.5243,VALID,348,VALID,0.893359,
2010-01-07, 02:57:05,VALID,917.137,VALID,0,VALID,96.3295,VALID,0,VALID,19.5063,VALID,348,VALID,0.712109,
2010-01-07, 02:58:05,VALID,917.142,VALID,0,VALID,96.2609,VALID,0,VALID,19.4478,VALID,348,VALID,0.360938,
2010-01-07, 02:59:05,VALID,917.123,VALID,0,VALID,96.3829,VALID,0,VALID,19.4283,VALID,348,VALID,0.501562,
2010-01-07, 03:00:05,VALID,917.134,VALID,0,VALID,96.5429,VALID,0,VALID,19.4074,VALID,348,VALID,0.875391,
2010-01-07, 03:01:05,VALID,917.141,VALID,0,VALID,96.5506,VALID,0,VALID,19.4074,VALID,348,VALID,1.06484,
2010-01-07, 03:02:05,VALID,917.139,VALID,0,VALID,96.6115,VALID,0,VALID,19.3879,VALID,348,VALID,0.970312,
2010-01-07, 03:03:05,VALID,917.121,VALID,0,VALID,96.6344,VALID,0,VALID,19.3879,VALID,348,VALID,0.6125,
2010-01-07, 03:04:05,VALID,917.122,VALID,0,VALID,96.6192,VALID,0,VALID,19.3684,VALID,348,VALID,0.830078,
2010-01-07, 03:05:05,VALID,917.095,VALID,0,VALID,96.6268,VALID,0,VALID,19.3279,VALID,348,VALID,0.899219,
2010-01-07, 03:06:05,VALID,917.066,VALID,0,VALID,96.6192,VALID,0.107441,VALID,19.3294,VALID,348,VALID,0.678125,
2010-01-07, 03:07:05,VALID,917.021,VALID,0,VALID,96.7335,VALID,0,VALID,19.3294,VALID,348,VALID,1.16289,
2010-01-07, 03:08:05,VALID,917.005,VALID,0,VALID,96.7793,VALID,0,VALID,19.3099,VALID,348,VALID,1.31836,
2010-01-07, 03:09:05,VALID,917.023,VALID,0,VALID,96.7793,VALID,0,VALID,19.3308,VALID,348,VALID,1.10234,
2010-01-07, 03:10:05,VALID,917.043,VALID,0,VALID,96.7869,VALID,0,VALID,19.2904,VALID,348,VALID,0.538672,
2010-01-07, 03:11:05,VALID,917.036,VALID,0,VALID,96.8631,VALID,0,VALID,19.2904,VALID,348,VALID,0.0496094,
2010-01-07, 03:12:05,VALID,917.034,VALID,0,VALID,96.9089,VALID,0,VALID,19.3294,VALID,348,VALID,0.0394531,
2010-01-07, 03:13:05,VALID,917.003,VALID,0,VALID,96.9089,VALID,0,VALID,19.3294,VALID,348,VALID,0.637891,
2010-01-07, 03:14:05,VALID,916.986,VALID,0,VALID,96.8936,VALID,0,VALID,19.3294,VALID,348,VALID,0.502734,
2010-01-07, 03:15:05,VALID,916.983,VALID,0,VALID,96.9317,VALID,0,VALID,19.3489,VALID,348,VALID,0.00234375,
2010-01-07, 03:16:05,VALID,916.977,VALID,0,VALID,96.8707,VALID,0,VALID,19.3489,VALID,348,VALID,0,
2010-01-07, 03:17:05,VALID,916.965,VALID,0,VALID,96.8479,VALID,0.107441,VALID,19.3684,VALID,348,VALID,0.0148437,
2010-01-07, 03:18:05,VALID,916.938,VALID,0,VALID,96.825,VALID,0.107441,VALID,19.3474,VALID,348,VALID,0.340234,
2010-01-07, 03:19:05,VALID,916.901,VALID,0,VALID,96.7183,VALID,0,VALID,19.3489,VALID,348,VALID,0.897656,
2010-01-07, 03:20:05,VALID,916.941,VALID,0,VALID,96.7564,VALID,0,VALID,19.3489,VALID,348,VALID,0.293359,
2010-01-07, 03:21:05,VALID,916.931,VALID,0,VALID,96.6878,VALID,0.107441,VALID,19.3489,VALID,348,VALID,0.117969,
2010-01-07, 03:22:05,VALID,916.925,VALID,0,VALID,96.6573,VALID,0,VALID,19.3489,VALID,348,VALID,0.884766,
2010-01-07, 03:23:05,VALID,916.969,VALID,0,VALID,96.6497,VALID,0.107441,VALID,19.3489,VALID,348,VALID,1.01055,
2010-01-07, 03:24:05,VALID,916.951,VALID,0,VALID,96.6344,VALID,0.107441,VALID,19.3489,VALID,348,VALID,0.494531,
2010-01-07, 03:25:05,VALID,916.914,VALID,0,VALID,96.6497,VALID,0,VALID,19.3489,VALID,348,VALID,0.0285156,
2010-01-07, 03:26:05,VALID,916.892,VALID,0,VALID,96.7488,VALID,0,VALID,19.3489,VALID,348,VALID,0.535937,
2010-01-07, 03:27:05,VALID,916.871,VALID,0,VALID,96.7107,VALID,0.107441,VALID,19.3684,VALID,348,VALID,1.30938,
2010-01-07, 03:28:05,VALID,916.836,VALID,0,VALID,96.5887,VALID,0,VALID,19.3489,VALID,348,VALID,0.987109,
2010-01-07, 03:29:05,VALID,916.878,VALID,0,VALID,96.5734,VALID,0,VALID,19.3294,VALID,295,VALID,1.12461,
2010-01-07, 03:30:05,VALID,916.88,VALID,0,VALID,96.642,VALID,0,VALID,19.3489,VALID,275,VALID,0.591406,
2010-01-07, 03:31:05,VALID,916.875,VALID,0,VALID,96.7259,VALID,0,VALID,19.3294,VALID,275,VALID,0.566406,
2010-01-07, 03:32:05,VALID,916.841,VALID,0,VALID,96.7183,VALID,0,VALID,19.3294,VALID,275,VALID,0.280859,
2010-01-07, 03:33:05,VALID,916.858,VALID,0,VALID,96.7259,VALID,0.107441,VALID,19.3294,VALID,275,VALID,0.509375,
2010-01-07, 03:34:05,VALID,916.842,VALID,0,VALID,96.6649,VALID,0,VALID,19.3294,VALID,275,VALID,1.07773,
2010-01-07, 03:35:05,VALID,916.833,VALID,0,VALID,96.5124,VALID,0,VALID,19.2904,VALID,348,VALID,0.501562,
2010-01-07, 03:36:05,VALID,916.832,VALID,0,VALID,96.4286,VALID,0.107441,VALID,19.2904,VALID,348,VALID,0.712891,
2010-01-07, 03:37:05,VALID,916.85,VALID,0,VALID,96.3981,VALID,0,VALID,19.3294,VALID,348,VALID,0.449609,
2010-01-07, 03:38:05,VALID,916.847,VALID,0,VALID,96.3524,VALID,0,VALID,19.3294,VALID,348,VALID,0.282422,
2010-01-07, 03:39:05,VALID,916.855,VALID,0,VALID,96.3066,VALID,0,VALID,19.3489,VALID,347,VALID,0.273438,
2010-01-07, 03:40:05,VALID,916.878,VALID,0,VALID,96.2075,VALID,0.107441,VALID,19.3474,VALID,348,VALID,0.308203,
2010-01-07, 03:41:05,VALID,916.845,VALID,0,VALID,96.0322,VALID,0,VALID,19.4074,VALID,348,VALID,0,
2010-01-07, 03:42:05,VALID,916.864,VALID,0,VALID,95.9102,VALID,0,VALID,19.4268,VALID,348,VALID,0.158984,
2010-01-07, 03:43:05,VALID,916.876,VALID,0,VALID,95.6891,VALID,0.107441,VALID,19.4268,VALID,348,VALID,0,
2010-01-07, 03:44:05,VALID,916.865,VALID,0,VALID,95.59,VALID,0,VALID,19.4463,VALID,348,VALID,0,